FW3075 Weather Reports


time (UTC)temp
F
wind
direction
speed
knots
gust
knots
rain 1hr
in
rain 24hr
in
rain mn
in
humidity
%
barometer
mb
20260504041508 57 211 0.9 4.3 0.00 0.00 0.00 63 1005.6
20260504041010 58 211 0.0 5.2 0.00 0.00 0.00 63 1005.7
20260504040511 58 208 0.0 5.2 0.00 0.00 0.00 63 1005.7
20260504040014 58 227 0.0 4.3 0.00 0.00 0.00 62 1005.7
20260504035507 58 225 0.9 4.3 0.00 0.00 0.00 62 1005.7
20260504035006 58 225 0.9 2.6 0.00 0.00 0.00 62 1005.7
20260504034507 58 220 0.9 3.5 0.00 0.00 0.00 62 1005.8
20260504033513 58 228 0.0 2.6 0.00 0.00 0.00 62 1005.8
20260504033007 58 236 0.0 2.6 0.00 0.00 0.00 61 1005.9
20260504032507 58 236 0.0 2.6 0.00 0.00 0.00 61 1006.0
20260504032011 58 240 0.0 1.7 0.00 0.00 0.00 60 1006.1
20260504031505 59 240 0.0 1.7 0.00 0.00 0.00 60 1006.1
20260504031012 59 227 0.0 1.7 0.00 0.00 0.00 59 1006.1
20260504030505 59 227 0.0 1.7 0.00 0.00 0.00 60 1006.3
20260504030023 59 227 0.0 1.7 0.00 0.00 0.00 59 1006.2
20260504025505 59 230 0.0 2.6 0.00 0.00 0.00 59 1006.2
20260504025006 60 230 0.0 2.6 0.00 0.00 0.00 59 1006.2
20260504024505 60 230 0.0 1.7 0.00 0.00 0.00 58 1006.3
20260504024012 60 229 0.0 5.2 0.00 0.00 0.00 58 1006.2
20260504023510 60 227 0.0 5.2 0.00 0.00 0.00 57 1006.1
20260504023006 60 211 0.0 1.7 0.00 0.00 0.00 57 1006.2
20260504022006 61 211 0.0 1.7 0.00 0.00 0.00 56 1006.2
20260504021505 61 211 0.0 2.6 0.00 0.00 0.00 57 1006.1
20260504021010 61 211 0.0 2.6 0.00 0.00 0.00 56 1006.1
20260504020011 61 228 0.0 1.7 0.00 0.00 0.00 55 1005.9
20260504015006 62 229 0.9 4.3 0.00 0.00 0.00 54 1005.8
20260504014506 62 234 0.9 6.1 0.00 0.00 0.00 54 1005.8
20260504014019 62 229 0.9 6.1 0.00 0.00 0.00 53 1005.7
20260504013505 62 253 0.0 4.3 0.00 0.00 0.00 54 1005.7
20260504013006 62 229 0.9 3.5 0.00 0.00 0.00 54 1005.6
20260504012509 63 230 0.9 3.5 0.00 0.00 0.00 53 1005.6
20260504012006 63 263 0.9 4.3 0.00 0.00 0.00 52 1005.7
20260504011012 63 226 0.9 3.5 0.00 0.00 0.00 52 1005.6
20260504010506 64 248 0.9 7.0 0.00 0.00 0.00 51 1005.6
20260504005506 64 205 0.9 4.3 0.00 0.00 0.00 49 1005.5
20260504005006 65 200 0.0 1.7 0.00 0.00 0.00 49 1005.5
20260504004505 65 198 0.0 5.2 0.00 0.00 0.00 48 1005.5
20260504004027 65 225 0.9 5.2 0.00 0.00 0.00 47 1005.6
20260504003508 66 213 0.9 4.3 0.00 0.00 0.00 47 1005.6
20260504003009 66 240 0.9 2.6 0.00 0.00 0.00 46 1005.6
20260504002508 66 219 0.9 4.3 0.00 0.00 0.00 46 1005.5
20260504001507 67 214 1.7 5.2 0.00 0.00 0.00 47 1005.6
20260504001007 67 211 1.7 6.1 0.00 0.00 0.00 45 1005.6
20260504000009 67 223 1.7 6.1 0.00 0.00 0.00 44 1005.6
20260503235006 67 229 1.7 7.0 0.00 0.00 0.00 44 1005.6
20260503234013 68 202 1.7 7.0 0.00 0.00 0.00 44 1005.6
20260503233506 68 277 1.7 7.0 0.00 0.00 0.00 43 1005.6
20260503233009 68 292 2.6 6.1 0.00 0.00 0.00 42 1005.6
20260503232009 68 224 2.6 9.6 0.00 0.00 0.00 43 1005.5
20260503231506 68 196 2.6 8.7 0.00 0.00 0.00 42 1005.5
20260503231009 69 220 2.6 8.7 0.00 0.00 0.00 43 1005.6
20260503230508 69 211 2.6 9.6 0.00 0.00 0.00 42 1005.6
20260503230022 69 237 2.6 9.6 0.00 0.00 0.00 42 1005.7
20260503225507 69 285 2.6 7.0 0.00 0.00 0.00 40 1005.7
20260503225012 70 227 2.6 7.0 0.00 0.00 0.00 39 1005.8
20260503224507 70 261 2.6 10.4 0.00 0.00 0.00 40 1005.7
20260503224006 70 240 1.7 10.4 0.00 0.00 0.00 41 1005.9
20260503223508 71 198 1.7 8.7 0.00 0.00 0.00 39 1005.9
20260503223009 70 242 0.9 7.0 0.00 0.00 0.00 41 1005.9
20260503222505 70 215 0.9 7.8 0.00 0.00 0.00 42 1006.0
20260503222008 70 219 1.7 10.4 0.00 0.00 0.00 42 1006.0
20260503221513 69 209 1.7 10.4 0.00 0.00 0.00 42 1006.1
20260503221012 69 225 1.7 8.7 0.00 0.00 0.00 44 1006.1
20260503220505 68 206 1.7 5.2 0.00 0.00 0.00 44 1006.2
20260503220008 68 237 1.7 7.0 0.00 0.00 0.00 42 1006.3
20260503215506 68 206 2.6 11.3 0.00 0.00 0.00 43 1006.4
20260503215005 69 217 2.6 11.3 0.00 0.00 0.00 41 1006.4
20260503214510 69 186 2.6 7.8 0.00 0.00 0.00 42 1006.3
20260503214008 69 231 2.6 8.7 0.00 0.00 0.00 41 1006.4
20260503213505 68 219 1.7 15.6 0.00 0.00 0.00 43 1006.5
20260503212505 67 202 1.7 12.2 0.00 0.00 0.00 43 1006.8
20260503212007 67 242 1.7 8.7 0.00 0.00 0.00 45 1006.8
20260503211510 67 223 2.6 8.7 0.00 0.00 0.00 43 1006.9
20260503211007 67 250 2.6 9.6 0.00 0.00 0.00 42 1007.1
20260503210010 67 217 2.6 10.4 0.00 0.00 0.00 41 1007.1
20260503205504 68 288 3.5 13.0 0.00 0.00 0.00 39 1007.3
20260503205009 68 225 3.5 13.0 0.00 0.00 0.00 38 1007.4
20260503204508 68 238 3.5 10.4 0.00 0.00 0.00 39 1007.4
20260503204006 68 177 3.5 10.4 0.00 0.00 0.00 38 1007.6
20260503203507 69 224 3.5 12.2 0.00 0.00 0.00 38 1007.7
20260503203008 69 213 3.5 12.2 0.00 0.00 0.00 39 1007.8
20260503202509 68 236 3.5 9.6 0.00 0.00 0.00 40 1007.8
20260503201507 68 229 3.5 10.4 0.00 0.00 0.00 41 1008.0
20260503201005 67 226 3.5 11.3 0.00 0.00 0.00 42 1008.1
20260503200507 67 174 3.5 9.6 0.00 0.00 0.00 40 1008.0
20260503194009 64 232 1.7 9.6 0.00 0.00 0.00 51 1008.4
20260503193506 64 171 1.7 8.7 0.00 0.00 0.00 51 1008.6
20260503192505 63 156 1.7 9.6 0.00 0.00 0.00 51 1008.5
20260503192012 63 206 1.7 9.6 0.00 0.00 0.00 57 1008.7
20260503191510 62 205 1.7 9.6 0.00 0.00 0.00 55 1008.8
20260503191006 61 240 2.6 9.6 0.00 0.00 0.00 57 1008.8
20260503185507 60 169 1.7 8.7 0.00 0.00 0.00 57 1009.0
20260503183508 58 190 1.7 6.1 0.00 0.00 0.00 63 1009.4
20260503183008 57 170 1.7 6.1 0.00 0.00 0.00 65 1009.5
20260503182505 56 224 1.7 8.7 0.00 0.00 0.00 67 1009.5
20260503181505 55 247 0.9 5.2 0.00 0.00 0.00 68 1009.7
20260503175505 53 215 0.0 2.6 0.00 0.00 0.00 71 1010.3
20260503174504 52 227 0.9 2.6 0.00 0.00 0.00 73 1010.8
20260503174008 52 313 0.9 2.6 0.00 0.00 0.00 76 1011.1
20260503173506 52 198 0.9 2.6 0.00 0.00 0.00 76 1011.4
20260503173010 52 221 0.9 3.5 0.00 0.00 0.00 76 1011.3
20260503172012 52 198 0.9 2.6 0.00 0.00 0.00 78 1011.6
20260503171504 51 242 0.9 5.2 0.00 0.00 0.00 77 1011.9
20260503171007 52 234 0.9 5.2 0.00 0.00 0.00 75 1011.9
20260503170506 51 91 0.9 4.3 0.00 0.00 0.00 74 1012.0
20260503151006 53 269 1.7 7.0 0.00 0.00 0.00 58 1013.2
20260503150504 53 275 1.7 6.1 0.00 0.00 0.00 59 1013.2
20260503131005 48 227 0.9 7.0 0.00 0.00 0.00 64 1013.6
20260503130506 47 243 1.7 7.0 0.00 0.00 0.00 64 1013.7
20260503110504 45 234 0.9 7.8 0.00 0.00 0.00 65 1013.7
20260503090504 43 231 0.0 3.5 0.00 0.00 0.00 63 1014.1
20260503081503 43 210 0.0 0.0 0.00 0.00 0.00 61 1014.3
20260503081004 43 209 0.0 0.0 0.00 0.00 0.00 61 1014.3
20260503080509 43 209 0.0 0.0 0.00 0.00 0.00 60 1014.4
20260503072504 43 249 0.0 0.0 0.00 0.00 0.00 61 1014.4
20260503072007 43 249 0.0 0.0 0.00 0.00 0.00 61 1014.4
20260503071503 43 245 0.0 0.0 0.00 0.00 0.00 60 1014.4
20260503071007 43 245 0.0 0.0 0.00 0.00 0.00 61 1014.4
20260503070503 43 245 0.0 0.0 0.00 0.00 0.00 61 1014.4
20260503055007 44 242 0.0 0.0 0.00 0.00 0.00 60 1015.0
20260503054507 44 242 0.0 0.0 0.00 0.00 0.00 58 1015.0
20260503054007 44 242 0.0 0.0 0.00 0.00 0.00 59 1015.0
20260503053506 44 242 0.0 0.0 0.00 0.00 0.00 58 1015.1
20260503052006 44 244 0.0 0.0 0.00 0.00 0.00 58 1015.3
20260503051007 44 244 0.0 0.0 0.00 0.00 0.00 59 1015.4
20260503050511 44 244 0.0 0.0 0.00 0.00 0.00 58 1015.3
20260503050023 45 244 0.0 0.0 0.00 0.00 0.00 58 1015.4
20260503045509 45 244 0.0 0.0 0.00 0.00 0.00 58 1015.5
20260503045008 45 244 0.0 0.0 0.00 0.00 0.00 58 1015.5
20260503044505 45 244 0.0 0.0 0.00 0.00 0.00 58 1015.5
20260503044009 45 244 0.0 0.0 0.00 0.00 0.00 58 1015.5
20260503043508 45 244 0.0 0.0 0.00 0.00 0.00 58 1015.4
20260503043006 45 244 0.0 0.0 0.00 0.00 0.00 58 1015.5
20260503042506 45 244 0.0 0.0 0.00 0.00 0.00 59 1015.5